Location: Mentone
(34.5413°N, 85.5351°W)
Time: 16:54:35
(UTC-05:00)

Amateur Radio Satellites - All Passes

Search period start: 05 May 2016 16:24
Search period end: 06 May 2016 16:24
Location: Mentone, 34.5413°N, 85.5351°W

Satellite Date Start Highest point End Downlink Frequencies (MHz)
Time Altitude Azimuth
SWISSCUBE 05 May 16:25:17 16:26:52 12° 296° (WNW) 16:28:26 437.505
BEESAT 3 05 May 16:31:12 16:33:34 16° 109° (ESE) 16:35:57 437.485
KKS-1 05 May 16:33:22 16:37:49 75° 284° (WNW) 16:42:14 437.445
JUGNU 05 May 16:38:07 16:41:28 16° 170° (S) 16:44:48 437.505
PCSat 05 May 16:41:19 16:43:45 13° 312° (NW) 16:46:11 145.827
STARS 05 May 16:41:41 16:46:04 67° 102° (ESE) 16:50:24 437.465
BEESAT 2 05 May 16:45:12 16:46:55 12° 108° (ESE) 16:48:37 435.950
NOAA 15 05 May 16:50:11 16:53:44 19° 65° (ENE) 16:57:19 137.62
AO-7 05 May 16:51:40 16:58:46 32° 262° (W) 17:05:56 29.400- 29.500
HORYU 2 05 May 16:54:58 16:59:24 64° 259° (W) 17:03:50 437.375
NOAA 18 05 May 16:56:28 17:00:23 20° 65° (ENE) 17:04:18 137.9125
MOZHAYETS 4 05 May 16:58:45 17:03:15 60° 285° (WNW) 17:07:46
Cubesat XI-IV 05 May 17:03:44 17:06:57 16° 65° (ENE) 17:10:09 437.490
CUBESAT XI-V 05 May 17:16:06 17:19:31 20° 94° (E) 17:22:56 437.345
AUBIESAT-1 05 May 17:40:35 17:42:09 12° 61° (ENE) 17:43:43 437.475
Cosmos 2491 05 May 17:42:54 17:51:42 71° 82° (E) 18:00:25 435.465 / 435.565
GOMX 1 05 May 17:43:50 17:47:15 18° 66° (ENE) 17:50:46 467.674
SRMSAT 05 May 17:45:01 17:46:51 11° 165° (SSE) 17:48:40 437.500
YUBILEINY 05 May 17:49:20 17:57:07 38° 87° (E) 18:04:51 435.215
CUTE-I 05 May 17:55:55 18:01:05 53° 73° (ENE) 18:06:14 437.470
BEESAT 3 05 May 18:07:22 18:10:58 33° 304° (WNW) 18:14:35 437.485
BEESAT 2 05 May 18:20:34 18:24:21 42° 303° (WNW) 18:28:09 435.950
BRITE-PL 05 May 18:24:27 18:29:15 86° 256° (WSW) 18:34:32 437.365/2234.400
JUGNU 05 May 18:25:45 18:29:46 19° 180° (S) 18:33:47 437.505
LilacSat-2 05 May 18:27:27 18:31:20 72° 260° (W) 18:35:12 437.200
NOAA 15 05 May 18:28:03 18:33:06 47° 260° (W) 18:38:12 137.62
NOAA 18 05 May 18:35:22 18:40:39 47° 260° (W) 18:45:57 137.9125
Cubesat XI-IV 05 May 18:41:18 18:46:31 55° 259° (W) 18:51:44 437.490
AIST 2 05 May 18:41:46 18:44:23 16° 109° (ESE) 18:47:00 435.215
CUBESAT XI-V 05 May 18:52:41 18:56:55 34° 288° (WNW) 19:01:09 437.345
M-CUBED/EXP-1 PRIME 05 May 18:55:28 19:00:12 85° 253° (WSW) 19:04:53 437.505
RS-15 05 May 18:58:26 19:03:22 14° 97° (E) 19:08:22 29.354- 29.394
CUTE 1.7 + AOD 2 05 May 18:59:18 19:00:43 11° 66° (ENE) 19:02:07 437.475
DOVE 4 05 May 18:59:49 19:04:45 52° 74° (ENE) 19:09:53 437.250
AUBIESAT-1 05 May 19:11:26 19:16:04 69° 254° (WSW) 19:20:38 437.475
Cosmos 2504 05 May 19:19:22 19:25:39 33° 88° (E) 19:31:51 435.465 / 435.565
SEEDS 05 May 19:19:47 19:22:04 15° 68° (ENE) 19:24:21 437.485
GOMX 1 05 May 19:19:59 19:24:48 48° 262° (W) 19:29:58 467.674
CINEMA 3 05 May 19:20:45 19:24:55 27° 70° (ENE) 19:29:04 145.822/145.860
SRMSAT 05 May 19:31:20 19:35:17 18° 174° (S) 19:39:15 437.500
CUTE-I 05 May 19:38:16 19:41:22 16° 267° (W) 19:44:30 437.470
Cosmos 2491 05 May 19:41:41 19:47:34 20° 279° (W) 19:53:26 435.465 / 435.565
HO-68 05 May 19:43:31 19:50:31 61° 71° (ENE) 19:57:33 435.675
AAUSAT CUBESAT 2 05 May 19:44:35 19:47:03 16° 68° (ENE) 19:49:32 437.432
YUBILEINY 05 May 19:45:39 19:53:42 41° 284° (WNW) 20:01:47 435.215
CUBEBUG 2 05 May 19:47:43 19:50:30 16° 67° (ENE) 19:53:16 437.445
STRAND 1 05 May 19:49:33 19:54:39 69° 102° (ESE) 19:59:45 437.568
AO-85 05 May 19:59:39 20:02:28 16° 46° (NE) 20:05:09 145.980
CANX-2 05 May 19:59:41 20:03:53 74° 77° (ENE) 20:08:05 2200.000
JUGNU 05 May 20:14:51 20:18:03 15° 191° (S) 20:21:17 437.505
AIST 2 05 May 20:18:45 20:22:33 35° 304° (NW) 20:26:22 435.215
PRISM 05 May 20:26:30 20:30:11 29° 98° (E) 20:33:51 437.425
Oscar 11 05 May 20:31:37 20:35:00 23° 70° (ENE) 20:38:24 145.826/435.025
CUTE 1.7 + AOD 2 05 May 20:32:00 20:36:05 49° 260° (W) 20:40:11 437.475
DOVE 4 05 May 20:39:39 20:42:42 16° 269° (W) 20:45:51 437.250
FUNcube-1 05 May 20:47:25 20:51:19 30° 72° (ENE) 20:55:09 145.935
COMPASS 1 05 May 20:50:34 20:54:37 59° 259° (W) 20:58:43 437.405
SEEDS 05 May 20:53:33 20:57:25 37° 262° (W) 21:01:18 437.485
CINEMA 3 05 May 20:57:32 21:01:52 29° 264° (W) 21:06:14 145.822/145.860
RS-15 05 May 21:02:28 21:13:36 78° 115° (ESE) 21:25:24 29.354- 29.394
UWE-3 05 May 21:07:31 21:12:09 84° 80° (E) 21:16:44 435.000/436.395/437.385
Cosmos 2504 05 May 21:12:17 21:18:50 36° 283° (WNW) 21:25:19 435.465 / 435.565
AAUSAT CUBESAT 2 05 May 21:18:31 21:22:14 33° 262° (W) 21:25:59 437.432
SRMSAT 05 May 21:19:45 21:23:46 19° 185° (S) 21:27:48 437.500
CUBEBUG 2 05 May 21:22:11 21:26:43 45° 261° (W) 21:31:13 437.445
ZACube-1 05 May 21:30:47 21:35:19 79° 257° (WSW) 21:39:47 437.345
STRAND 1 05 May 21:31:09 21:33:12 12° 297° (WNW) 21:35:16 437.568
HO-68 05 May 21:33:25 21:38:35 21° 266° (W) 21:43:47 435.675
AO-85 05 May 21:38:52 21:43:22 53° 245° (WSW) 21:47:27 145.980
UNISAT 6 05 May 21:55:23 21:56:29 11° 92° (E) 21:57:36 437.425
PRISM 05 May 22:02:22 22:05:15 18° 291° (WNW) 22:08:08 437.425
DELFI C3 05 May 22:04:30 22:08:21 53° 260° (W) 22:12:13 145.870
HUMSAT D 05 May 22:05:26 22:09:35 59° 76° (ENE) 22:13:42 437.325/437.525
Oscar 11 05 May 22:07:28 22:11:00 24° 264° (W) 22:14:32 145.826/435.025
TIGRISAT 05 May 22:10:18 22:12:59 16° 94° (E) 22:15:38 435.000
FUNcube-1 05 May 22:24:08 22:27:31 21° 265° (W) 22:30:52 145.935
AISAT 05 May 22:34:16 22:37:07 17° 67° (ENE) 22:40:01 437.250
ANTELSAT 05 May 22:35:02 22:38:57 34° 98° (E) 22:42:49 437.575/2403.000
50 SAT 05 May 22:38:32 22:40:52 16° 70° (ENE) 22:43:12 437.505
CUBEBUG 1 05 May 23:00:24 23:04:14 30° 71° (ENE) 23:08:05 437.445
ESTCUBE 1 05 May 23:05:00 23:09:20 51° 74° (ENE) 23:13:41 437.505/2401.250
SRMSAT 05 May 23:09:59 23:12:13 12° 195° (SSW) 23:14:28 437.500
RS-15 05 May 23:17:33 23:27:16 31° 319° (NW) 23:37:31 29.354- 29.394
Cosmos 2499 05 May 23:20:35 23:22:13 11° 79° (E) 23:23:51 435.465 / 435.565
DX 1 05 May 23:21:26 23:25:38 49° 73° (ENE) 23:29:53 434.975-435.025
DUCHIFAT 1 05 May 23:21:43 23:24:39 18° 95° (E) 23:27:34 145.980
UKube-1 05 May 23:21:45 23:25:46 39° 73° (ENE) 23:29:49 .
QB50P2 05 May 23:26:27 23:29:56 25° 96° (E) 23:33:24 145.880/145.840
POLYITAN 1 05 May 23:28:38 23:32:09 25° 96° (E) 23:35:37 437.675
UNISAT 6 05 May 23:29:19 23:33:28 48° 286° (WNW) 23:37:34 437.425
POPSAT HIP 1 05 May 23:30:17 23:33:49 26° 97° (E) 23:37:20 437.405
QB50P1 05 May 23:33:04 23:36:44 28° 97° (E) 23:40:22 145.935-145.965
GONETS M04 05 May 23:34:00 23:42:05 42° 87° (E) 23:50:09
VELOX 1 05 May 23:36:10 23:40:36 85° 75° (ENE) 23:45:04 145.980
SPROUT 05 May 23:45:19 23:49:15 35° 73° (ENE) 23:53:12 437.525
TIGRISAT 05 May 23:45:54 23:49:45 33° 288° (WNW) 23:53:32 435.000
PCSat 05 May 23:46:00 23:50:53 33° 57° (ENE) 23:55:43 145.827
BUGSAT 1 05 May 23:49:25 23:52:14 18° 94° (E) 23:55:01 437.445
NANOSAT C BR1 06 May 00:05:30 00:09:42 70° 101° (ESE) 00:13:52 145.865
CUSAT 1 06 May 00:06:19 00:09:57 14° 66° (ENE) 00:13:39 437.405
TISAT 1 06 May 00:07:42 00:10:36 18° 69° (ENE) 00:13:30 437.305
AISAT 06 May 00:09:10 00:13:16 37° 261° (W) 00:17:26 437.250
AIST 1 06 May 00:09:16 00:13:34 82° 275° (W) 00:17:57
50 SAT 06 May 00:11:27 00:14:26 24° 263° (W) 00:17:26 437.505
ANTELSAT 06 May 00:12:41 00:15:21 16° 292° (WNW) 00:18:00 437.575/2403.000
O/OREOS (USA 219) 06 May 00:31:34 00:36:03 74° 253° (WSW) 00:40:31 437.305
CUBEBUG 1 06 May 00:37:22 00:40:30 19° 265° (W) 00:43:41 437.445
ESTCUBE 1 06 May 00:44:49 00:46:23 12° 268° (W) 00:47:58 437.505/2401.250
DUCHIFAT 1 06 May 00:56:43 01:00:21 29° 289° (WNW) 01:03:57 145.980
UKube-1 06 May 00:59:36 01:01:57 14° 266° (W) 01:04:18 .
DX 1 06 May 01:00:32 01:02:04 12° 267° (W) 01:03:36 434.975-435.025
QB50P2 06 May 01:02:21 01:05:36 22° 290° (WNW) 01:08:50 145.880/145.840
POLYITAN 1 06 May 01:04:35 01:07:47 21° 291° (WNW) 01:10:59 437.675
POPSAT HIP 1 06 May 01:06:15 01:09:26 21° 291° (WNW) 01:12:36 437.405
Cosmos 2499 06 May 01:07:04 01:14:09 88° 275° (W) 01:21:18 435.465 / 435.565
QB50P1 06 May 01:09:16 01:12:17 19° 291° (WNW) 01:15:18 145.935-145.965
Oscar 19 06 May 01:16:31 01:20:37 23° 95° (E) 01:24:40 437.125/150
DANDE 06 May 01:17:46 01:23:38 26° 74° (ENE) 01:30:09 436.750
SPROUT 06 May 01:22:39 01:25:17 16° 266° (W) 01:27:56 437.525
BUGSAT 1 06 May 01:24:00 01:27:38 29° 288° (WNW) 01:31:10 437.445
JAS-2 06 May 01:26:37 01:34:26 62° 100° (E) 01:41:57 435.910
PCSat 06 May 01:29:31 01:34:07 29° 252° (WSW) 01:38:42 145.827
GONETS M04 06 May 01:30:49 01:38:49 38° 285° (WNW) 01:46:53
Gurwin Techsat 1B 06 May 01:39:53 01:42:54 15° 93° (E) 01:45:54 435.225
ITUPSAT 1 06 May 01:40:38 01:44:57 36° 72° (ENE) 01:49:17 437.325
RS-15 06 May 01:40:41 01:45:38 13° 353° (N) 01:50:39 29.354- 29.394
TISAT 1 06 May 01:42:12 01:46:00 31° 263° (W) 01:49:48 437.305
CUSAT 1 06 May 01:45:15 01:52:59 76° 81° (E) 02:01:02 437.405
SWISSCUBE 06 May 01:47:51 01:52:25 49° 73° (ENE) 01:56:59 437.505
BEESAT 06 May 02:20:24 02:25:09 80° 257° (WSW) 02:29:56 436.000
BEESAT 3 06 May 02:27:37 02:31:22 41° 58° (ENE) 02:35:05 437.485
BEESAT 2 06 May 02:41:52 02:45:31 34° 56° (NE) 02:49:09 435.950
ITAMSAT 1 06 May 02:42:37 02:46:52 25° 96° (E) 02:51:06 435.822/435.867
Oscar 19 06 May 02:55:16 02:59:56 35° 290° (WNW) 03:04:35 437.125/150
DANDE 06 May 02:59:29 03:06:38 61° 266° (W) 03:14:50 436.750
AO-7 06 May 03:05:05 03:10:33 19° 94° (E) 03:16:00 29.400- 29.500
Cosmos 2499 06 May 03:06:15 03:08:17 11° 294° (WNW) 03:10:18 435.465 / 435.565
JAS-2 06 May 03:12:35 03:18:47 26° 296° (WNW) 03:24:53 435.910
Gurwin Techsat 1B 06 May 03:17:56 03:23:07 55° 287° (WNW) 03:28:17 435.225
ITUPSAT 1 06 May 03:19:28 03:22:51 19° 265° (W) 03:26:13 437.325
KKS-1 06 May 03:27:33 03:31:58 63° 75° (ENE) 03:36:25 437.445
SWISSCUBE 06 May 03:28:02 03:30:26 14° 267° (W) 03:32:50 437.505
CUSAT 1 06 May 03:29:08 03:34:25 20° 275° (W) 03:39:50 437.405
STARS 06 May 03:34:48 03:38:52 37° 72° (ENE) 03:42:58 437.465
RS-15 06 May 03:56:41 04:05:21 21° 31° (NNE) 04:14:03 29.354- 29.394
MOZHAYETS 4 06 May 03:56:44 04:01:16 83° 79° (E) 04:05:51
YUBILEINY 06 May 04:05:42 04:09:54 14° 65° (ENE) 04:14:05 435.215
BEESAT 3 06 May 04:06:55 04:08:40 13° 252° (WSW) 04:10:24 437.485
CUBESAT XI-V 06 May 04:17:22 04:19:32 13° 66° (ENE) 04:21:42 437.345
BEESAT 2 06 May 04:20:38 04:23:04 16° 251° (WSW) 04:25:29 435.950
ITAMSAT 1 06 May 04:21:43 04:26:18 32° 290° (WNW) 04:30:52 435.822/435.867
AIST 2 06 May 04:42:59 04:47:00 47° 58° (ENE) 04:50:59 435.215
Cosmos 2491 06 May 04:47:57 04:52:17 15° 78° (ENE) 04:56:37 435.465 / 435.565
SO-50 06 May 04:49:05 04:51:29 14° 107° (ESE) 04:53:53 436.795
HORYU 2 06 May 04:49:43 04:53:36 30° 98° (E) 04:57:29 437.375
AO-7 06 May 04:55:37 05:03:58 78° 289° (WNW) 05:12:17 29.400- 29.500
STARS 06 May 05:12:34 05:15:19 16° 266° (W) 05:18:06 437.465
ISS 06 May 05:14:45 05:17:53 47° 134° (SE) 05:21:03 145.825
CUBESAT XI-V 06 May 05:51:57 05:56:25 52° 260° (W) 06:00:56 437.345
YUBILEINY 06 May 05:59:12 06:07:57 85° 84° (E) 06:16:42 435.215
LilacSat-2 06 May 06:05:41 06:07:55 15° 94° (E) 06:10:09 437.200
RS-15 06 May 06:08:29 06:20:47 67° 57° (ENE) 06:32:57 29.354- 29.394
CUTE-I 06 May 06:16:55 06:21:28 28° 97° (E) 06:26:00 437.470
AIST 2 06 May 06:23:24 06:25:01 12° 252° (WSW) 06:26:39 435.215
SO-50 06 May 06:26:36 06:31:26 59° 301° (WNW) 06:36:19 436.795
HORYU 2 06 May 06:26:44 06:29:56 20° 292° (WNW) 06:33:08 437.375
BRITE-PL 06 May 06:32:49 06:38:15 46° 98° (E) 06:43:28 437.365/2234.400
PHONESAT 2.4 06 May 06:36:15 06:37:15 11° 142° (SE) 06:38:14 2401.200-2431.200
Cosmos 2491 06 May 06:38:57 06:47:47 90° 279° (W) 06:56:41 435.465 / 435.565
NOAA 15 06 May 06:46:28 06:51:49 87° 99° (E) 06:57:08 137.62
AO-7 06 May 06:51:11 06:55:23 15° 307° (NW) 06:59:35 29.400- 29.500
ISS 06 May 06:52:20 06:54:32 17° 329° (NNW) 06:56:44 145.825
NOAA 18 06 May 07:00:44 07:06:13 83° 284° (WNW) 07:11:39 137.9125
STRAND 1 06 May 07:01:51 07:06:54 68° 75° (ENE) 07:11:58 437.568
Cubesat XI-IV 06 May 07:01:56 07:07:17 80° 103° (ESE) 07:12:36 437.490
DOVE 4 06 May 07:03:55 07:07:21 19° 92° (E) 07:10:38 437.250
Cosmos 2504 06 May 07:06:26 07:14:08 62° 81° (E) 07:22:24 435.465 / 435.565
PRISM 06 May 07:14:03 07:16:10 14° 67° (ENE) 07:18:16 437.425
HO-68 06 May 07:18:35 07:21:05 12° 91° (E) 07:23:35 435.675
GOMX 1 06 May 07:25:27 07:30:49 73° 101° (E) 07:35:50 467.674
LilacSat-2 06 May 07:38:59 07:42:15 27° 287° (WNW) 07:45:28 437.200
CANX-2 06 May 07:49:21 07:52:03 16° 94° (E) 07:54:45 2200.000
CUTE-I 06 May 07:56:50 08:01:25 30° 291° (WNW) 08:06:01 437.470
YUBILEINY 06 May 07:58:51 08:03:32 16° 281° (W) 08:08:13 435.215
PHONESAT 2.4 06 May 08:10:34 08:13:41 77° 156° (SSE) 08:16:50 2401.200-2431.200
BRITE-PL 06 May 08:12:05 08:16:17 22° 293° (WNW) 08:20:24 437.365/2234.400
M-CUBED/EXP-1 PRIME 06 May 08:13:50 08:17:31 57° 290° (WNW) 08:20:55 437.505
CUTE 1.7 + AOD 2 06 May 08:20:27 08:24:18 34° 98° (E) 08:28:09 437.475
RS-15 06 May 08:22:07 08:32:24 33° 256° (WSW) 08:42:36 29.354- 29.394
AUBIESAT-1 06 May 08:29:10 08:32:43 44° 291° (WNW) 08:36:01 437.475
NOAA 15 06 May 08:30:03 08:30:47 10° 299° (WNW) 08:31:32 137.62
COMPASS 1 06 May 08:37:13 08:40:46 26° 97° (E) 08:44:18 437.405
DOVE 4 06 May 08:40:34 08:45:11 38° 288° (WNW) 08:49:31 437.250
SEEDS 06 May 08:40:36 08:44:36 42° 99° (E) 08:48:36 437.485
Cosmos 2491 06 May 08:40:53 08:45:46 16° 294° (WNW) 08:50:43 435.465 / 435.565
Cubesat XI-IV 06 May 08:45:02 08:46:36 11° 298° (WNW) 08:48:11 437.490
STRAND 1 06 May 08:45:07 08:46:29 11° 269° (W) 08:47:49 437.568
PRISM 06 May 08:47:18 08:51:06 38° 261° (W) 08:54:56 437.425
CINEMA 3 06 May 08:55:37 09:00:09 85° 281° (W) 09:04:26 145.822/145.860
Cosmos 2504 06 May 09:01:14 09:06:55 22° 276° (W) 09:12:51 435.465 / 435.565
UWE-3 06 May 09:01:51 09:04:57 20° 95° (E) 09:08:01 435.000/436.395/437.385
HO-68 06 May 09:02:22 09:09:34 88° 106° (ESE) 09:16:44 435.675
AAUSAT CUBESAT 2 06 May 09:03:51 09:07:50 45° 99° (E) 09:11:49 437.432
GOMX 1 06 May 09:05:57 09:08:06 12° 297° (WNW) 09:10:11 467.674
TIGRISAT 06 May 09:07:08 09:08:30 11° 65° (ENE) 09:09:52 435.000
CUBEBUG 2 06 May 09:16:48 09:20:54 46° 99° (E) 09:24:53 437.445
ZACube-1 06 May 09:23:28 09:26:50 24° 96° (E) 09:30:10 437.345
CANX-2 06 May 09:24:11 09:27:58 32° 287° (WNW) 09:31:44 2200.000
ANTELSAT 06 May 09:30:38 09:34:12 22° 70° (ENE) 09:37:43 437.575/2403.000
DELFI C3 06 May 09:46:06 09:49:20 23° 96° (E) 09:52:34 145.870
PHONESAT 2.4 06 May 09:47:53 09:50:43 30° 350° (N) 09:53:34 2401.200-2431.200
GONETS M04 06 May 09:50:23 09:55:17 16° 66° (ENE) 10:00:09
HUMSAT D 06 May 09:54:32 09:56:00 12° 93° (E) 09:57:29 437.325/437.525
Oscar 11 06 May 09:57:09 10:01:28 76° 102° (ESE) 10:05:46 145.826/435.025
CUTE 1.7 + AOD 2 06 May 09:57:11 09:59:50 16° 291° (WNW) 10:02:29 437.475
AO-85 06 May 10:11:15 10:13:33 13° 105° (ESE) 10:15:52 145.980
COMPASS 1 06 May 10:13:05 10:16:08 20° 290° (WNW) 10:19:11 437.405
FUNcube-1 06 May 10:14:32 10:18:41 81° 283° (WNW) 10:22:48 145.935
QB50P2 06 May 10:17:09 10:19:08 13° 67° (ENE) 10:21:08 145.880/145.840
SEEDS 06 May 10:17:56 10:19:54 13° 293° (WNW) 10:21:54 437.485
POLYITAN 1 06 May 10:19:17 10:21:21 13° 67° (ENE) 10:23:25 437.675
POPSAT HIP 1 06 May 10:20:46 10:22:52 13° 67° (ENE) 10:24:57 437.405
AIST 1 06 May 10:20:59 10:23:57 17° 75° (ENE) 10:26:53
QB50P1 06 May 10:23:18 10:25:40 15° 67° (ENE) 10:28:02 145.935-145.965
UNISAT 6 06 May 10:23:50 10:28:30 90° 304° (NW) 10:33:05 437.425
UWE-3 06 May 10:37:54 10:41:22 25° 289° (WNW) 10:44:47 435.000/436.395/437.385
TIGRISAT 06 May 10:40:03 10:44:38 63° 259° (W) 10:49:11 435.000
AAUSAT CUBESAT 2 06 May 10:41:12 10:42:54 12° 293° (WNW) 10:44:35 437.432
HO-68 06 May 10:52:26 10:56:19 16° 302° (WNW) 11:00:11 435.675
NANOSAT C BR1 06 May 10:54:14 10:58:01 32° 72° (ENE) 11:01:49 145.865
CUBEBUG 2 06 May 10:55:28 10:57:03 12° 294° (WNW) 10:58:37 437.445
ZACube-1 06 May 10:59:48 11:03:00 22° 290° (WNW) 11:06:10 437.345
Cosmos 2499 06 May 11:01:35 11:08:05 27° 74° (ENE) 11:14:54 435.465 / 435.565
ESTCUBE 1 06 May 11:02:27 11:04:56 14° 93° (E) 11:07:25 437.505/2401.250
ANTELSAT 06 May 11:06:40 11:10:43 30° 263° (W) 11:14:43 437.575/2403.000
DX 1 06 May 11:15:33 11:16:52 11° 92° (E) 11:18:10 434.975-435.025
DELFI C3 06 May 11:21:04 11:24:03 21° 290° (WNW) 11:27:03 145.870
PHONESAT 2.4 06 May 11:25:15 11:28:02 28° 7° (N) 11:30:50 2401.200-2431.200
HUMSAT D 06 May 11:27:57 11:31:48 41° 286° (WNW) 11:35:39 437.325/437.525
VELOX 1 06 May 11:30:39 11:34:01 21° 95° (E) 11:37:22 145.980
JAS-2 06 May 11:37:19 11:41:09 17° 60° (ENE) 11:45:15 435.910
50 SAT 06 May 11:44:02 11:47:22 32° 98° (E) 11:50:41 437.505
DUCHIFAT 1 06 May 11:44:12 11:48:25 65° 259° (W) 11:52:41 145.980
GONETS M04 06 May 11:44:27 11:53:14 89° 264° (W) 12:01:55
ISS 06 May 11:46:02 11:48:01 15° 30° (NNE) 11:50:00 145.825
AO-85 06 May 11:47:59 11:53:25 75° 299° (WNW) 11:58:52 145.980
QB50P2 06 May 11:50:24 11:54:31 45° 260° (W) 11:58:39 145.880/145.840
POLYITAN 1 06 May 11:52:37 11:56:44 44° 261° (W) 12:00:51 437.675
POPSAT HIP 1 06 May 11:54:08 11:58:13 44° 261° (W) 12:02:20 437.405
QB50P1 06 May 11:57:02 12:01:03 40° 261° (W) 12:05:06 145.935-145.965
AIST 1 06 May 11:57:40 12:01:34 31° 269° (W) 12:05:27
AISAT 06 May 12:02:31 12:06:54 52° 100° (E) 12:11:13 437.250
BUGSAT 1 06 May 12:09:13 12:13:26 71° 258° (WSW) 12:17:42 437.445
CUBEBUG 1 06 May 12:27:57 12:32:25 80° 281° (WNW) 12:36:48 437.445
Oscar 19 06 May 12:30:03 12:34:10 25° 68° (ENE) 12:38:18 437.125/150
NANOSAT C BR1 06 May 12:30:56 12:33:47 17° 266° (W) 12:36:38 145.865
ESTCUBE 1 06 May 12:37:36 12:41:54 43° 287° (WNW) 12:46:11 437.505/2401.250
UKube-1 06 May 12:47:54 12:52:13 66° 285° (WNW) 12:56:30 .
DX 1 06 May 12:49:03 12:53:18 51° 286° (WNW) 12:57:32 434.975-435.025
Cosmos 2499 06 May 12:53:41 13:01:25 55° 269° (W) 13:09:40 435.465 / 435.565
Gurwin Techsat 1B 06 May 12:57:35 13:01:08 18° 66° (ENE) 13:04:40 435.225
PHONESAT 2.4 06 May 13:01:59 13:05:08 82° 17° (NNE) 13:08:18 2401.200-2431.200
O/OREOS (USA 219) 06 May 13:02:14 13:05:31 20° 101° (E) 13:08:48 437.305
VELOX 1 06 May 13:06:36 13:10:27 29° 289° (WNW) 13:14:17 145.980
SPROUT 06 May 13:10:14 13:14:29 70° 285° (WNW) 13:18:44 437.525
50 SAT 06 May 13:19:13 13:20:49 12° 292° (WNW) 13:22:25 437.505
JAS-2 06 May 13:19:19 13:25:14 71° 258° (WSW) 13:32:03 435.910
ISS 06 May 13:21:31 13:24:44 58° 225° (SW) 13:27:56 145.825
TISAT 1 06 May 13:29:11 13:33:17 49° 100° (E) 13:37:20 437.305
AO-85 06 May 13:32:48 13:34:46 12° 317° (NW) 13:36:44 145.980
AISAT 06 May 13:41:02 13:42:52 12° 295° (WNW) 13:44:42 437.250
GONETS M04 06 May 13:44:44 13:48:41 14° 282° (WNW) 13:52:38
ITUPSAT 1 06 May 13:46:34 13:48:23 12° 92° (E) 13:50:13 437.325
SWISSCUBE 06 May 13:52:40 13:55:43 17° 94° (E) 13:58:44 437.505
ITAMSAT 1 06 May 13:57:17 14:01:37 28° 69° (ENE) 14:05:56 435.822/435.867
AO-7 06 May 14:01:02 14:06:45 21° 57° (ENE) 14:12:29 29.400- 29.500
Oscar 19 06 May 14:08:37 14:13:16 34° 262° (W) 14:17:57 437.125/150
PCSat 06 May 14:23:34 14:28:53 61° 112° (ESE) 14:34:14 145.827
BEESAT 06 May 14:24:18 14:28:37 33° 98° (E) 14:32:55 436.000
DANDE 06 May 14:27:40 14:28:33 11° 83° (E) 14:29:30 436.750
Gurwin Techsat 1B 06 May 14:35:33 14:40:39 48° 260° (W) 14:45:48 435.225
PHONESAT 2.4 06 May 14:39:46 14:41:41 15° 217° (SW) 14:43:36 2401.200-2431.200
O/OREOS (USA 219) 06 May 14:40:32 14:44:39 32° 295° (WNW) 14:48:48 437.305
CUSAT 1 06 May 14:46:29 14:49:58 90° 161° (SSE) 14:54:38 437.405
SO-50 06 May 15:01:41 15:06:13 46° 57° (ENE) 15:10:35 436.795
TISAT 1 06 May 15:06:58 15:08:27 12° 294° (WNW) 15:09:57 437.305
ITUPSAT 1 06 May 15:21:50 15:26:31 57° 286° (WNW) 15:31:11 437.325
KKS-1 06 May 15:23:21 15:26:06 16° 94° (E) 15:28:48 437.445
SWISSCUBE 06 May 15:29:09 15:33:38 41° 288° (WNW) 15:38:05 437.505
ITAMSAT 1 06 May 15:36:29 15:40:57 30° 263° (W) 15:45:26 435.822/435.867
HORYU 2 06 May 15:44:58 15:48:09 19° 68° (ENE) 15:51:19 437.375
AO-7 06 May 15:50:20 15:58:36 78° 254° (WSW) 16:06:56 29.400- 29.500
MOZHAYETS 4 06 May 15:55:46 15:59:32 25° 96° (E) 16:03:19
BEESAT 06 May 16:02:37 16:06:09 21° 292° (WNW) 16:09:42 436.000
DANDE 06 May 16:08:40 16:10:58 19° 290° (WNW) 16:13:39 436.750
PCSat 06 May 16:09:06 16:12:41 18° 309° (NW) 16:16:16 145.827
BEESAT 3 06 May 16:16:17 16:18:46 16° 110° (ESE) 16:21:18 437.485
